Simultaneous Nadir Overpasses (SNOs) Predictions

Prediction of SNOs between METOP-C and LANDSAT-8 Satellite Orbit:

Table of predicted SNOs for the next 14.0 days since TLE Epoch: 3/7/2020
Index Date (METOP-C) Time (METOP-C) Lat,Lon (METOP-C) SZA (METOP-C ) Date (LANDSAT-8) Time (LANDSAT-8) Lat,Lon (LANDSAT-8) SZA (LANDSAT-8 ) Distance(km) Time Diff (sec)
1 03/09/2020 04:37:57 -81.07, -30.76 92.95 03/09/2020 04:38:20 -81.07, -30.87 92.95 1.98 23
2 03/09/2020 05:28:37 81.08, 136.81 87.07 03/09/2020 05:27:46 81.07, 136.86 87.05 0.90 51
3 03/12/2020 00:12:20 -81.06, 35.52 94.05 03/12/2020 00:12:33 -81.07, 35.60 94.03 1.56 13
4 03/12/2020 01:03:00 81.07,-156.90 85.98 03/12/2020 01:01:59 81.07,-156.71 85.97 3.31 61
5 03/14/2020 19:46:43 -81.07, 102.15 95.11 03/14/2020 19:46:47 -81.07, 102.04 95.12 1.94 4
6 03/14/2020 20:37:22 81.10, -89.87 84.97 03/14/2020 20:36:12 81.10, -89.93 84.93 1.12 70
7 03/17/2020 14:30:28 81.04, 0.40 83.72 03/17/2020 14:31:35 81.04, 0.44 83.75 0.87 67
8 03/17/2020 15:21:07 -81.07, 168.41 96.21 03/17/2020 15:21:01 -81.07, 168.46 96.21 0.96 6
9 03/20/2020 10:04:51 81.03, 66.66 82.61 03/20/2020 10:05:48 81.04, 66.81 82.65 2.63 57




NCC Satellite Simultaneous Nadir Overpasses (SNOs) Prediction Service
